Flag for Kazakhstan Weather past 2 weeks in Qyzylorda, Kazakhstan

59 °F

Passing clouds.

Feels Like: 57 °F
Forecast: 43 / 56 °F
Wind: 10 mph from Northwest

Location: Kzyl-Orda

Current Time: Oct 9, 2015 at 8:02:58 AM

Latest Report: Oct 9, 2015 at 7:30 AM

Visibility: N/A

Pressure: 29.89 "Hg

Humidity: 77%

Dew point: 52 °F

Location of QyzylordaLocation

Historic Weather in Qyzylorda — Graph


Qyzylorda temperature yesterday

Maximum temperature yesterday: 93 °F (at 8:30 PM)
Minimum temperature yesterday: 50 °F (at 3:30 AM)
Average temperature yesterday: 74 °F

Past Weeks' High & Low Weather Summary

High93 °F (Oct 8, 8:30 PM)75% (Oct 5, 7:30 AM)30.39 "Hg (Oct 5, 7:30 AM)
Low32 °F (Oct 5, 7:30 AM)9% (Sep 29, 6:00 PM)29.59 "Hg (Oct 8, 5:30 PM)
Average61 °F30%30.09 "Hg
* Reported Sep 24 7:00 AM — Oct 9 7:00 AM, Qyzylorda, Weather by CustomWeather, © 2015

Note: Actual official high and low records may vary slightly from our data, if they occured in-between our weather recording intervals... More about our weather records


Qyzylorda weather history for previous 24 hours

Time TempWeatherWind HumidityBarometerVisibility
7:00 AM
Fri, Oct 9
61 °FPassing clouds.10 mph72%29.86 "HgN/A
6:30 AM63 °FPassing clouds.8 mph68%29.83 "HgN/A
6:00 AM64 °FPassing clouds.13 mph64%29.80 "HgN/A
5:00 AM66 °FPassing clouds.8 mph60%29.77 "HgN/A
4:00 AM70 °FPassing clouds.6 mph46%29.74 "HgN/A
3:00 AM72 °FPassing clouds.6 mph31%29.71 "HgN/A
2:00 AM73 °FPassing clouds.3 mph27%29.68 "HgN/A
1:00 AM75 °FPassing clouds.6 mph25%29.68 "HgN/A
12:00 AM79 °FPassing clouds.6 mph23%29.68 "HgN/A
11:30 PM
Thu, Oct 8
81 °FPassing clouds.3 mph20%29.65 "HgN/A
11:00 PM81 °FPassing clouds.6 mph21%29.65 "HgN/A
10:30 PM82 °FPassing clouds.8 mph20%29.65 "HgN/A
10:00 PM86 °FPassing clouds.8 mph15%29.62 "HgN/A
9:30 PM88 °FPassing clouds.10 mph15%29.62 "HgN/A
9:00 PM91 °FPassing clouds.8 mph13%29.59 "HgN/A
8:30 PM93 °FPassing clouds.13 mph12%29.59 "HgN/A
8:00 PM90 °FPartly sunny.13 mph13%29.62 "HgN/A
7:30 PM88 °FPartly sunny.10 mph13%29.59 "HgN/A
7:00 PM90 °FPartly sunny.8 mph13%29.59 "HgN/A
6:30 PM90 °FPartly sunny.8 mph13%29.59 "HgN/A
6:00 PM91 °FPartly sunny.8 mph13%29.59 "HgN/A
5:30 PM91 °FPartly sunny.13 mph13%29.59 "HgN/A
5:00 PM91 °FPartly sunny.17 mph14%29.62 "HgN/A
4:30 PM90 °FPartly sunny.24 mph15%29.62 "HgN/A
4:00 PM90 °FPartly sunny.24 mph15%29.62 "HgN/A
3:30 PM91 °FPartly sunny.24 mph13%29.62 "HgN/A
3:00 PM88 °FPartly sunny.15 mph17%29.65 "HgN/A
2:30 PM88 °FPartly sunny.15 mph17%29.65 "HgN/A
2:00 PM82 °FPartly sunny.13 mph21%29.68 "HgN/A
1:30 PM82 °FPartly sunny.15 mph21%29.68 "HgN/A
1:00 PM82 °FPartly sunny.13 mph23%29.68 "HgN/A
12:30 PM82 °FPartly sunny.13 mph23%29.68 "HgN/A
12:00 PM79 °FPartly sunny.13 mph26%29.71 "HgN/A
11:30 AM77 °FSunny.13 mph26%29.71 "Hg10 mi
11:00 AM72 °FPartly sunny.10 mph29%29.74 "HgN/A
10:30 AM72 °FPartly sunny.10 mph27%29.74 "HgN/A
10:00 AM64 °FPartly sunny.8 mph30%29.74 "HgN/A
9:30 AM61 °FPartly sunny.6 mph31%29.77 "HgN/A
9:00 AM59 °FPartly sunny.6 mph29%29.77 "HgN/A
8:30 AM59 °FPassing clouds.6 mph31%29.77 "HgN/A
8:00 AM57 °FPassing clouds.6 mph33%29.77 "HgN/A
Weather by CustomWeather, © 2015

See weather overviewHow to use our weather pages